Regional Weather Roundup
Issued by NWS Upton, NY

Current Version | Previous Version | Graphics & Text | Print | Product List | Glossary Off
Versions: 1 2 3 4 5 6 7 8 9 10 11 12 13 14 15 16 17 18 19 20 21 22 23 24 25 26 27 28 29 30 31 32 33 34 35 36 37 38 39 40 41 42 43 44 45 46 47 48 49 50
000 ASUS41 KOKX 290905 RWROKX REGIONAL WEATHER ROUNDUP NATIONAL WEATHER SERVICE NEW YORK NY 400 AM EST THU JAN 29 2015 NOTE: "FAIR" INDICATES FEW OR NO CLOUDS BELOW 12,000 FEET WITH NO SIGNIFICANT WEATHER AND/OR OBSTRUCTIONS TO VISIBILITY. NYZ071-072-176-178-NJZ106-104-291000- NEW YORK CITY METRO AREA CITY SKY/WX TMP DP RH WIND PRES REMARKS CENTRAL PARK PTCLDY 21 1 41 VRB5 30.32S WCI 15 LAGUARDIA APRT CLEAR 21 6 52 CALM 30.31S KENNEDY INTL CLEAR 20 1 43 N10 30.31S WCI 9 NEWARK/LIBERTY PTCLDY 16 3 56 N6 30.32S WCI 7 BRNX BOT. GARD N/A N/A N/A N/A N3 30.32S TETERBORO PTCLDY 14 2 58 CALM 30.32S $$ NYZ177-179-078>081-291000- LONG ISLAND NEW YORK CITY SKY/WX TMP DP RH WIND PRES REMARKS FARMINGDALE CLEAR 16 2 54 CALM 30.29S ISLIP CLEAR 18 4 54 N5 30.28R WCI 11 SHIRLEY CLEAR 17 4 56 N3 30.30R WESTHAMPTON CLEAR 2 -7 66 CALM 30.30R MONTAUK POINT N/A 25 10 53 N7 30.28S WCI 17 $$ NYZ052-065-067-291000- HUDSON VALLEY CITY SKY/WX TMP DP RH WIND PRES REMARKS WHITE PLAINS PTCLDY 13 -2 51 N9 30.26S WCI 1 NEWBURGH CLEAR 1 -2 85 CALM 30.31R MONTGOMERY PTCLDY -2 -5 87 CALM 30.30S POUGHKEEPSIE PTCLDY 0 -7 72 CALM 30.33S ALBANY MOCLDY 0 -6 76 CALM 30.34S $$ NJZ001-105-106-008-010-013-015-019>022-104-291000- NEW JERSEY CITY SKY/WX TMP DP RH WIND PRES REMARKS NEWARK/LIBERTY PTCLDY 16 3 56 N6 30.32S WCI 7 TETERBORO PTCLDY 14 2 58 CALM 30.32S CALDWELL PTCLDY 12 -1 56 CALM 30.32S MORRISTOWN PTCLDY 10 3 72 CALM 30.31S SOMERVILLE PTCLDY 8 0 69 CALM 30.29F SUSSEX PTCLDY -2 -5 87 CALM 30.29F ANDOVER N/A -2 -6 83 CALM 30.29F TRENTON PTCLDY 19 1 45 CALM 30.29F MILLVILLE CLEAR 13 7 77 CALM 30.30S ATLANTIC CITY CLEAR 18 4 54 CALM 30.31S WRIGHTSTOWN PTCLDY 16 4 60 N2 30.28S TOMS RIVER PTCLDY 3 0 85 CALM 30.31S BELMAR PTCLDY 16 0 48 NW6 30.29S WCI 7 $$ PAZ047>061-062-071-291000- EASTERN PENNSYLVANIA CITY SKY/WX TMP DP RH WIND PRES REMARKS PHILADELPHIA CLEAR 24 3 40 CALM 30.32S ALLENTOWN MOCLDY 9 0 67 CALM 30.30R SCRANTON PTCLDY 7 1 76 E5 30.28S WCI -2 $$ CTZ002-004>006-009-010-012-RIZ004-006-007-MAZ004-011-015-291000- SOUTHERN NEW ENGLAND IN CT CITY SKY/WX TMP DP RH WIND PRES REMARKS BRADLEY INTL PTCLDY 5 -4 66 NW5 30.30R WCI -4 HARTFORD PTCLDY 3 -1 83 SE3 30.32R DANBURY MOCLDY 1 -5 75 CALM 30.29S WTRBRY/OXFORD PTCLDY 12 -6 44 N10 30.24R WCI -1 BRIDGEPORT PTCLDY 15 2 56 W3 30.30R MERIDEN PTCLDY 5 -1 76 CALM 30.30F NEW HAVEN PTCLDY 14 1 56 N10 30.28S WCI 1 CHESTER FAIR 18 0 45 N9 30.27S WCI 6 GROTON PTCLDY 11 -2 56 N5 30.28S WCI 3 WILLIMANTIC PTCLDY -6 -10 83 NE3 30.30R IN RI CITY SKY/WX TMP DP RH WIND PRES REMARKS PROVIDENCE PTCLDY 8 0 69 CALM 30.28S BLOCK ISLAND CLEAR 21 7 53 N7 30.24S WCI 13 WESTERLY PTCLDY 9 -4 55 NE6 30.27F WCI -1 IN MA CITY SKY/WX TMP DP RH WIND PRES REMARKS BOSTON PTCLDY 14 -1 51 NW3 30.28S WORCESTER MOCLDY 8 -8 48 NW9 30.21R WCI -5 WESTFIELD PTCLDY -4 -9 79 CALM 30.29S PROVINCETOWN PTCLDY 28 19 69 N16 30.25S WCI 17 NANTUCKET CLOUDY 27 20 75 NW15G23 30.22R WCI 15 $$ ANZ330-335-338-340-345-350-353-355-291000- COASTAL MARINE OBSERVATIONS STATION/POSITION TIME SKY/WX TEMP WIND PRES VSBY WAVE AIR SEA DIR/SP/G HT/PER (UTC) (F) (DEG/KT/KT) (MB) (MI) (FT/S) NY HARB ENTRANCE 0900 27 39 360/ 14/ 17 1025.5 3/ 3 4S FIRE IS 0800 37 N/A 2/13 20S FIRE ISLAND 0800 42 1025.3 4/ 4 23SW MTP 0900 N/A 3/11 HUDSON CANYON NOT AVBL EXECUTION ROCKS 0900 22 33 320/ 6/ 8 N/A WESTERN LI SOUND 0900 23 340/ 6/ 10 N/A 0 CENTRAL LI SOUND 0800 23 35 10/ 12/ 14 N/A 1/ 2 EASTERN LI SOUND NOT AVBL ROBBINS REEF 0900 21 340/ 6/ 8 1025.4 $$ >>>>>>>>>>>>>>>>>>>>>>>>>>>> KEY <<<<<<<<<<<<<<<<<<<<<<<<<<< > < > SKY/WX - SKY CONDITION/PRESENT WEATHER < > TMP - TEMPERATURE IN FAHRENHEIT < > DP - DEWPOINT IN FAHRENHEIT < > RH - RELATIVE HUMIDITY IN PERCENT < > WIND - DIRECTION AND SPEED IN MPH < > PRES - MEAN SEA LEVEL PRESSURE IN INCHES OF HG < > WCI - WIND CHILL INDEX < > VSB - VISIBILITY IN MILES < > HX - HEAT INDEX < > TC - TEMPERATURE IN CELSIUS < > VRB - VARIABLE WIND DIRECTION < > < >>>>>>>>>>>>>>>>>>>>>>>>>>>> KEY <<<<<<<<<<<<<<<<<<<<<<<<<<<

USA.gov is the U.S. government's official web portal to all federal, state and local government web resources and services.